THORAD DELTA 1 DEB, 8145

Orbit data source: Space-Track

THORAD DELTA 1 DEB, 8145 is space debris in SSO originally from a launch on Fri, 15 Nov 1974 UTC launched from the Air Force Western Test Range (AFWTR). Debris objects in space refer to the collection of defunct objects orbiting the Earth. Examples of debris include non-operational satellites, rocket bodies, and fragments generated from explosions, collisions, or faulty payload assembly.

Loading next visibility...
Identifier
8145, 1974-089P
Orbit
SSO
Country
Flag of USUS
Related business
Manufacturer
Unknown
Mission
Spacecraft
Bus & Motor
Unknown
Mass
Unknown
Launch date (UTC)
1974-11-15 (52 years ago)
Launch vehicle
Unknown
Launch site
Air Force Western Test Range (AFWTR)
Object type
Payload
Rocket body
Debris
Shape & HBR
Unknown shape, 0.2 m
Radar Cross Section
Medium (>0.1 m² and <1 m²)

Expand to show TLE details & history
Last TLE update: 1 day ago

TLE from 1 day ago
0 THORAD DELTA 1 DEB
1 08145U 74089P   26144.11927938  .00000000  00000-0  24027-3 0  9991
2 08145 101.0895 351.7195 0026904 186.3631 290.4018 12.60650179367225
Epoch: 2026-05-24T02:51Z
TLE epoch observation values (Epoch: 2026-05-24T02:51:45.738Z)
Latitude
61.54064°
Longitude
-91.85809°
Altitude
1,423.369 km
Speed
7.158 km/s
True Right ascension
12h 51m 14s
True Declination
61° 24' 31"
Sunlit
Object was in daylight at epoch
Visualization orbit readout
Latitude
Unknown
Longitude
Unknown
Altitude
Unknown
Speed
Unknown
Apparent Right ascension
Unknown
Apparent Declination
Unknown
Sunlit
N/A
Visualization observer readout
Local Sidereal Time
14:50:24
Azimuth
Unknown
Elevation
Unknown
Doppler factor
Unknown
Orbital elements
Apogee altitude
1,438.731 km
Perigee altitude
1,396.783 km
Semi-major axis
7,795.894 km
Eccentricity
0.00269
Inclination
101.0895°
RAAN
351.7195°
Arg. of periapsis
186.3631°
True anomaly
290.1125°
Mean anomaly
290.4018°
Eccentric anomaly
290.25719°
Mean motion
3.15315 °/min
Orbital period
114.17 mins
BSTAR
0.00024027
Loading maneuver chart data...
Computing Atmospheric mass density...
Loading historical data...
Loading historical data...
Loading historical data...
Loading historical data...
Loading historical data...
Loading historical data...
Loading historical data...

Documentation

Showing up to 5 results
|